Details for QantasLink at YBCS




Go Back


Latest METAR
Local Time

YBCS 240800Z 18008KT 9999 FEW024 BKN053 23/18 Q1015

24/05/2018, 18:09:02

Description
Results
QantasLink Logo
Number of Pilots based at YBCS
0 Pilots Based here
Number of QantasLink Flights Departed from YBCS
0 Flights Departed
Number of QantasLink Flights Arrived at YBCS
0 Flights Arrived
Number of QantasLink Schedules Departing from YBCS
11 Schedules
Number of QantasLink Schedules Arriving at YBCS
11 Schedules
Number of QantasLink Schedules Departing from YBCS availible today
7 Schedules Today
Number of QantasLink Schedules Arriving at YBCS availible today
6 Schedules Today
Average Landing Rate at YBCS
-96 fpm
QantasLink Average Landing Rate at YBCS
0 fpm
Total Fuel Purchased at YBCS by QantasLink
0.00 kgs / 0.00 lbs

Pilots Based at YBCS


Pilot ID
Pilot Name
Pilot Rank
No. of Flights
No. of Flying Hours
There are no pilots assigned to this hub!   Will you be the first?
Content